Home   Weather   Gunsan   Past weeks

Flag for South Korea Past Weather in Gunsan, South Korea — Yesterday and Last 2 Weeks

Now
76 °F

Light rain. Passing clouds.


Feels Like: 75 °F
Forecast: 73 / 80 °F
Wind: 13 mph from Southeast

Location: Kunsan Ab

Current Time: Aug 21, 2017 at 8:31:33 am

Latest Report: Aug 21, 2017 at 7:58 am


Visibility: 10 mi

Pressure: 29.74 "Hg

Humidity: 100%

Dew Point: 76 °F

Location of GunsanLocation

Past Weather in Gunsan — Graph

°F

Gunsan Temperature Yesterday

Maximum temperature yesterday: 87 °F (at 12:58 pm)
Minimum temperature yesterday: 75 °F (at 5:58 am)
Average temperature yesterday: 78 °F

High & Low Weather Summary for the Past Weeks

 TemperatureHumidityPressure
High93 °F (Aug 6, 3:58 pm)100% (Aug 7, 5:33 am)29.90 "Hg (Aug 7, 5:33 am)
Low70 °F (Aug 14, 6:44 am)57% (Aug 8, 4:58 pm)29.42 "Hg (Aug 9, 8:21 am)
Average78 °F92%29.67 "Hg
* Reported Aug 6 6:58 am — Aug 21 6:58 am, Gunsan. Weather by CustomWeather, © 2017

Note: Actual official high and low records may vary slightly from our data, if they occured in-between our weather recording intervals... More about our weather records

Advertising

Gunsan Weather History for the Previous 24 Hours

Scroll right to see more
 ConditionsComfort  
Time TempWeatherWind HumidityBarometerVisibility
6:58 am
Mon, Aug 21
76 °FPassing clouds.14 mph100%29.73 "Hg10 mi
6:31 am75 °FLight rain. Broken clouds.14 mph100%29.74 "Hg10 mi
6:08 am75 °FPartly sunny.9 mph100%29.73 "Hg10 mi
5:58 am75 °FPartly sunny.8 mph100%29.73 "Hg10 mi
5:31 am75 °FLight rain. Passing clouds.7 mph100%29.72 "Hg10 mi
4:58 am74 °FClear.6 mph100%29.72 "Hg10 mi
3:58 am75 °FPassing clouds.7 mph100%29.73 "Hg10 mi
3:34 am75 °FPassing clouds.8 mph100%29.75 "Hg10 mi
2:58 am75 °FClear.7 mph100%29.75 "Hg10 mi
2:42 am75 °FClear.6 mph100%29.75 "Hg10 mi
2:21 am75 °FLight rain. Partly cloudy.6 mph100%29.75 "Hg10 mi
2:03 am75 °FLight rain. Passing clouds.7 mph100%29.76 "Hg10 mi
1:43 am77 °FLight rain. Passing clouds.13 mph100%29.76 "Hg10 mi
1:38 am77 °FLight rain. Passing clouds.13 mph100%29.76 "Hg9 mi
1:09 am75 °FLight rain. Fog.15 mph100%29.77 "Hg5 mi
12:58 am76 °FHeavy rain. Fog.21 mph99%29.78 "Hg4 mi
11:58 pm
Sun, Aug 20
78 °FPassing clouds.8 mph96%29.76 "Hg10 mi
10:58 pm79 °FPassing clouds.10 mph95%29.75 "Hg10 mi
9:58 pm78 °FPartly cloudy.10 mph92%29.75 "Hg10 mi
8:58 pm78 °FPassing clouds.8 mph94%29.74 "Hg10 mi
7:58 pm78 °FPartly cloudy.10 mph96%29.72 "Hg10 mi
6:58 pm78 °FBroken clouds.10 mph97%29.71 "Hg10 mi
6:22 pm77 °FScattered clouds.10 mph100%29.70 "Hg10 mi
5:58 pm79 °FLight rain. Scattered clouds.17 mph94%29.71 "Hg8 mi
5:25 pm81 °FScattered clouds.13 mph89%29.70 "Hg10 mi
5:01 pm82 °FLight rain. Passing clouds.14 mph84%29.69 "Hg10 mi
3:58 pm84 °FPassing clouds.13 mph75%29.71 "Hg10 mi
2:58 pm87 °FBroken clouds.14 mph69%29.72 "Hg10 mi
1:58 pm87 °FBroken clouds.15 mph69%29.74 "Hg10 mi
12:58 pm87 °FBroken clouds.12 mph71%29.75 "Hg10 mi
11:58 am84 °FMore clouds than sun.12 mph80%29.77 "Hg10 mi
10:58 am81 °FBroken clouds.12 mph85%29.79 "Hg10 mi
9:58 am77 °FBroken clouds.10 mph100%29.80 "Hg10 mi
8:58 am75 °FLight rain. Scattered clouds.9 mph100%29.79 "Hg7 mi
8:33 am75 °FDrizzle. Broken clouds.6 mph100%29.81 "Hg8 mi
8:13 am75 °FLight rain. Fog.7 mph100%29.81 "Hg5 mi
Weather by CustomWeather, © 2017

See weather overviewHow to use our weather pages